Weather in Roseville

United States     38°47′23″N   121°17′01″W
В апреле 2022 года жителям России запретили посещать сайт meteo.paraplan.net по решению Генеральной прокуратуры. Аудитория сайта уменьшилась в 10 раз. Владельцы сайта не видят смысла в поддержке погодного сервера в таких условиях. Сайт будет закрыт в октябре.
temp.,
°C
wind,
m/s
gust,
m/s
humid.,
%
clouds,
%
prec.,
mm/h
press.,
hPa
HPBL,
m
4 october, tue
tue423:00+20se34570 0.0 1015154
02:00+18se34610 0.0 1015136
05:00+17se23640 0.0 1015112
08:00+18ese115713 0.0 1016104
11:00+25w22355 0.0 1016512
14:00+30w22275 0.0 1014930
17:00+31wsw222524 0.0 10121017
20:00+25se11355 0.0 101316
5 october, wed
wed523:00+22ese124321 0.0 101450
02:00+20ese12471 0.0 101460
05:00+19ene11481 0.0 101426
08:00+20ne11450 0.0 101547
11:00+26wnw22330 0.0 1015513
14:00+32w22240 0.0 1013953
17:00+32wsw21210 0.0 10121053
20:00+26se11300 0.0 101311
6 october, thu
thu623:00+23ese22370 0.0 101445
02:00+22e22395 0.0 101452
05:00+20e114134 0.0 101515
08:00+21n11375 0.0 101637
11:00+28wnw22265 0.0 1016459
14:00+33w221891 0.0 1015942
17:00+33wnw221585 0.0 10131107
20:00+27ne11235 0.0 101415
7 october, fri
fri723:00+24e22275 0.0 101631
02:00+22ene112975 0.0 101625
05:00+20ne11304 0.0 101612
08:00+21n11305 0.0 101740
11:00+28wnw22200 0.0 1017430
14:00+34wnw23130 0.0 1014885
17:00+34wnw23110 0.0 10121052
20:00+28e11170 0.0 101313
8 october, sat
sat823:00+24e22205 0.0 101448
02:00+23e22210 0.0 101445
05:00+21ene11220 0.0 101412
08:00+21ene11220 0.0 101527
11:00+29wnw21140 0.0 1015415
14:00+34w22110 0.0 1013781
17:00+34w22110 0.0 1011872
20:00+28ese11170 0.0 101212